Wind_Speed
9 10 10 11 11 11 11 12 12 13 14 15 15 16 17 18 18 18 19 18 17 18 18 19 21 21 22 23 23 24 24 24 24 24 25 26 27 26 26 26 27 28 28 27
8 8 9 10 11 11 11 11 12 13 15 16 16 18 18 18 19 20 20 18 19 19 20 20 22 22 23 24 25 25 25 26 26 26 26 27 28 27 28 28 29 29 29 29
7 8 9 10 10 11 12 11 12 14 15 17 17 18 18 18 18 19 19 19 20 20 21 22 23 23 24 24 25 25 25 26 26 26 27 27 28 28 29 29 30 30 30 30
5 6 8 9 10 12 12 12 12 13 15 15 17 18 16 18 19 19 19 20 20 21 21 21 23 23 24 24 25 25 26 26 27 27 27 28 28 29 29 30 31 31 31 31
5 6 8 9 10 13 13 13 14 15 15 17 17 19 16 17 19 19 20 20 21 22 22 23 23 23 25 26 25 25 26 26 27 27 28 28 28 29 30 31 31 31 31 31
6 8 8 9 11 13 13 13 14 15 17 17 16 19 18 18 20 20 21 21 22 23 22 23 23 24 24 24 25 26 26 26 26 27 27 28 29 29 30 30 30 30 30 30
8 9 10 11 11 12 13 14 15 15 16 16 17 19 19 19 18 18 20 20 20 21 21 22 23 24 24 24 25 25 25 25 26 27 28 28 28 28 28 28 28 28 29 28
10 10 11 12 12 13 13 14 15 17 17 17 18 19 19 18 18 19 19 20 20 20 20 20 21 23 23 24 24 25 25 26 27 27 28 28 28 28 28 28 28 27 27 27
11 11 12 13 14 15 14 15 16 17 18 18 18 18 18 18 18 19 20 20 19 20 21 21 22 23 24 25 25 25 25 25 26 27 27 28 28 28 28 28 28 27 27 27
14 14 13 14 14 15 16 17 16 16 18 18 17 17 19 18 19 19 18 18 19 20 21 20 21 23 24 25 25 25 25 26 25 25 26 26 27 27 27 27 27 27 26 26
17 17 15 14 15 16 16 17 17 17 18 20 20 18 17 18 16 17 18 19 19 19 20 21 22 23 23 23 23 23 25 25 25 25 25 26 25 26 26 25 25 25 24 24
18 18 17 16 15 15 16 16 17 18 18 19 20 18 16 16 16 17 18 19 19 20 21 21 21 21 22 22 22 23 24 24 24 24 25 25 25 24 23 23 22 23 23 23
18 18 18 16 16 16 16 16 16 17 18 18 18 19 16 16 17 17 19 19 19 20 20 20 21 21 21 22 22 23 23 23 23 24 24 23 22 22 22 21 21 21 21 22
18 18 17 17 17 17 17 17 16 17 18 18 17 17 17 17 18 18 18 19 19 18 18 19 20 20 21 21 22 22 22 22 23 23 22 21 21 21 21 21 21 20 20 20
19 19 18 18 18 18 18 17 17 18 17 17 16 17 17 17 17 16 17 17 17 16 18 18 19 19 19 20 21 21 21 21 21 21 20 20 20 19 20 20 20 19 18 18
20 19 19 19 18 18 18 18 18 18 18 17 17 17 16 16 15 16 16 16 16 15 16 17 18 18 19 20 20 20 20 19 19 19 19 19 19 19 18 18 17 17 17 17
20 20 20 20 19 19 18 17 18 17 17 17 16 15 15 15 15 15 14 14 15 15 16 16 17 17 18 18 19 19 20 19 18 18 18 18 18 18 17 16 16 16 16 16
19 20 20 20 20 20 16 16 16 16 16 16 16 15 14 14 14 13 13 14 15 15 15 16 17 17 17 18 18 18 19 17 16 16 17 17 17 17 16 16 16 15 15 15
18 20 20 20 20 19 15 14 14 15 15 14 14 13 12 12 12 12 13 14 15 15 14 15 16 16 17 17 17 17 17 16 16 16 16 16 16 15 16 15 15 15 14 14
17 18 19 19 19 17 14 13 13 14 13 12 13 12 11 11 11 12 12 13 13 12 13 14 15 16 16 16 17 16 16 15 15 15 15 15 15 15 14 14 14 14 14 14
18 18 18 18 17 15 14 13 13 13 12 12 11 11 10 10 10 11 11 12 11 11 12 13 14 15 15 16 16 15 15 14 14 15 15 16 15 15 14 14 13 13 13 14
18 17 16 16 16 14 13 12 11 12 11 10 11 10 9 9 9 9 10 10 10 10 11 13 13 14 15 15 14 14 14 14 14 14 15 15 15 14 14 13 13 13 13 14
18 17 16 15 14 13 12 11 11 11 11 10 9 8 8 8 8 9 9 8 9 9 11 12 13 13 14 14 14 14 14 14 14 14 14 14 14 14 14 14 14 14 14 14
17 17 16 15 13 13 12 11 11 11 9 8 6 6 7 6 6 7 7 7 7 8 10 11 11 12 13 13 14 14 14 14 14 14 13 14 14 14 14 14 14 15 15 14
15 14 14 14 13 12 11 11 11 10 9 8 6 5 5 4 5 6 6 6 7 8 9 10 11 12 12 13 14 14 14 14 13 13 13 13 14 14 14 14 15 15 15 15
14 14 14 13 12 12 11 11 11 9 9 8 7 6 4 4 4 4 4 5 6 7 8 10 11 11 12 13 14 14 14 13 12 13 13 13 14 15 15 16 16 16 16 15
Wind_Direction
187 191 198 206 215 225 234 236 241 248 254 264 269 276 281 283 285 288 290 291 294 296 296 297 296 292 292 292 292 292 289 291 290 289 289 289 289 287 286 287 287 286 286 286
188 189 200 211 221 230 238 240 249 253 259 266 269 275 277 280 281 285 287 292 295 297 298 299 296 292 291 290 290 290 289 290 291 290 289 289 288 287 288 288 287 286 287 287
209 205 215 224 228 239 245 252 259 262 264 269 271 273 274 277 279 283 288 294 298 302 303 303 300 293 290 288 289 291 290 289 289 288 287 287 287 287 287 287 286 287 287 287
221 221 235 240 244 253 253 259 267 268 264 269 274 275 275 278 284 290 293 292 295 300 300 302 304 296 296 293 292 292 291 290 289 288 288 287 287 288 288 288 287 287 287 287
248 243 247 250 254 259 260 264 267 271 272 272 273 276 283 285 286 288 293 294 295 295 298 299 304 303 301 297 294 293 293 292 290 289 288 288 288 289 290 290 289 288 288 288
263 260 268 267 263 266 268 267 269 273 275 274 278 279 282 289 290 289 291 292 295 295 298 301 303 306 303 299 296 294 294 293 291 290 289 288 288 289 290 290 290 289 289 289
261 263 268 272 273 273 274 276 277 275 274 277 280 282 288 295 294 293 292 293 294 297 299 302 303 306 305 303 301 297 294 293 293 292 291 290 289 290 290 291 292 290 289 290
274 267 267 271 275 278 275 275 279 280 281 281 281 285 290 295 295 292 292 296 296 296 300 301 305 309 309 308 304 299 297 295 294 293 292 292 292 291 291 291 291 291 291 292
282 275 274 274 273 276 277 277 280 282 285 288 285 287 287 294 296 294 294 296 297 298 300 303 307 308 307 308 307 302 300 298 296 294 292 292 292 292 292 292 291 291 291 292
281 279 276 273 274 276 276 276 279 283 289 294 293 292 293 296 299 296 295 302 305 303 304 304 305 307 307 308 308 305 305 305 302 298 297 295 294 293 292 291 291 291 291 291
280 280 276 273 272 273 271 272 277 284 289 291 294 296 297 299 297 298 302 304 303 305 307 308 307 307 308 309 310 310 309 307 305 303 301 300 299 298 295 294 293 292 293 293
276 276 274 270 272 272 270 271 274 280 286 288 293 299 299 299 297 300 301 302 304 305 307 308 308 309 309 311 312 312 311 309 307 305 304 302 301 300 298 297 295 293 292 293
279 276 273 266 266 267 266 269 272 278 282 286 291 299 299 298 297 300 302 303 305 307 306 306 309 310 310 312 313 312 311 310 309 309 308 305 303 302 301 299 296 294 294 294
280 276 270 269 270 269 268 271 274 278 283 287 290 295 297 297 298 300 301 301 305 305 308 308 311 313 314 315 314 313 311 310 311 311 309 307 306 305 304 304 301 297 296 297
276 274 272 271 270 270 274 276 277 278 282 287 293 296 298 298 299 300 299 302 307 307 311 314 315 315 318 317 316 316 316 314 314 314 312 310 309 309 308 307 305 301 298 299
273 273 273 273 273 273 274 276 276 279 282 288 291 295 297 296 297 300 297 300 309 314 318 319 319 319 321 319 319 320 321 321 320 320 319 316 314 313 313 312 309 305 303 304
273 272 273 276 276 275 274 278 278 278 282 287 290 293 293 291 296 301 299 300 307 313 319 319 322 323 324 323 323 324 325 324 324 324 324 323 321 321 319 317 315 313 309 308
273 275 275 275 276 274 277 278 278 279 280 282 285 286 286 290 297 298 302 304 308 314 320 322 326 327 327 328 329 331 331 329 329 329 328 327 327 328 326 323 320 319 317 315
271 274 272 273 275 277 278 278 278 280 279 281 283 286 286 292 301 301 303 306 310 315 320 324 328 331 331 333 335 336 336 337 335 334 335 335 334 334 334 331 330 327 324 323
271 272 274 274 275 278 281 283 282 280 279 281 282 285 289 292 299 300 300 306 317 321 326 330 333 336 337 339 339 339 339 341 341 342 344 343 342 340 339 336 335 333 332 333
273 269 270 272 273 273 277 281 281 280 281 280 280 281 286 288 293 300 305 312 320 328 333 337 339 341 342 342 340 341 343 344 345 346 349 351 351 349 346 344 342 340 337 338
272 269 267 267 269 271 274 278 278 274 277 280 282 282 283 290 296 300 310 317 328 336 341 341 341 342 345 346 346 346 346 347 348 349 352 354 355 356 356 354 350 348 345 341
266 264 265 265 265 263 264 268 268 268 270 273 280 282 284 295 301 307 318 326 335 341 344 344 346 349 351 353 354 354 355 353 350 350 351 355 358 358 360 358 355 353 350 347
259 259 259 260 259 258 256 253 255 260 261 266 275 280 293 303 312 320 331 337 341 344 346 349 353 355 359 359 358 357 356 356 356 356 356 357 0 2 1 0 359 358 356 353
258 257 255 254 253 250 246 246 246 245 250 257 258 269 284 303 312 322 332 336 341 346 350 354 357 358 360 2 2 1 0 0 1 2 4 5 6 5 3 2 0 358 357 356
249 247 246 245 245 244 239 239 237 239 247 253 258 263 275 294 304 319 333 344 351 355 356 359 1 2 4 5 3 3 4 4 3 4 4 4 4 3 2 1 359 357 356 355
Height
5855 5857 5859 5860 5861 5862 5862 5862 5862 5863 5863 5862 5861 5861 5861 5860 5860 5859 5858 5857 5857 5856 5855 5853 5852 5851 5849 5848 5846 5845 5843 5841 5839 5838 5836 5834 5833 5831 5829 5828 5826 5824 5822 5820
5855 5856 5857 5858 5858 5859 5859 5859 5859 5860 5859 5858 5858 5858 5857 5857 5856 5855 5854 5853 5853 5852 5850 5849 5847 5845 5844 5842 5840 5839 5837 5835 5833 5831 5830 5828 5826 5824 5823 5821 5819 5817 5815 5813
5853 5855 5855 5855 5856 5856 5856 5856 5856 5856 5855 5855 5855 5854 5853 5853 5852 5851 5850 5849 5848 5847 5846 5845 5843 5840 5838 5836 5834 5832 5830 5829 5827 5825 5823 5821 5819 5817 5816 5813 5811 5809 5807 5804
5852 5853 5853 5853 5854 5854 5853 5853 5853 5852 5851 5851 5852 5851 5850 5849 5848 5847 5846 5845 5843 5842 5841 5840 5837 5834 5831 5830 5828 5826 5824 5822 5820 5818 5816 5814 5812 5810 5808 5806 5803 5801 5799 5797
5850 5850 5850 5851 5851 5851 5850 5850 5850 5849 5848 5848 5848 5847 5847 5845 5844 5843 5842 5840 5839 5837 5836 5834 5832 5830 5827 5824 5821 5819 5817 5815 5813 5811 5809 5807 5805 5803 5800 5798 5795 5793 5790 5788
5848 5848 5848 5848 5848 5848 5848 5847 5847 5846 5845 5845 5844 5843 5843 5842 5840 5839 5837 5836 5834 5832 5831 5829 5827 5825 5821 5818 5816 5813 5811 5808 5806 5804 5802 5800 5798 5795 5793 5790 5787 5785 5783 5780
5846 5846 5846 5846 5845 5846 5845 5844 5843 5842 5841 5841 5840 5838 5839 5837 5835 5834 5832 5830 5829 5827 5826 5824 5821 5819 5816 5813 5810 5807 5804 5802 5799 5797 5795 5792 5790 5788 5785 5782 5780 5777 5775 5772
5843 5844 5844 5843 5842 5842 5841 5841 5840 5839 5837 5837 5836 5834 5835 5833 5831 5829 5827 5826 5824 5823 5821 5819 5816 5813 5810 5808 5805 5801 5798 5795 5793 5790 5787 5785 5782 5780 5777 5775 5772 5770 5767 5765
5839 5841 5841 5840 5839 5838 5837 5837 5836 5835 5833 5832 5831 5830 5829 5828 5827 5825 5823 5822 5820 5818 5816 5813 5810 5808 5805 5802 5799 5795 5792 5789 5786 5783 5780 5778 5775 5772 5770 5767 5765 5762 5760 5758
5836 5836 5837 5836 5836 5835 5834 5833 5832 5831 5829 5827 5827 5826 5825 5824 5822 5820 5819 5817 5815 5813 5811 5808 5806 5803 5800 5797 5793 5790 5785 5782 5779 5776 5774 5771 5768 5765 5762 5760 5758 5755 5753 5750
5832 5832 5832 5832 5832 5831 5831 5830 5828 5827 5825 5824 5822 5824 5821 5819 5817 5816 5814 5813 5811 5809 5806 5804 5801 5798 5795 5791 5788 5784 5780 5777 5773 5770 5767 5764 5761 5758 5755 5753 5750 5748 5746 5743
5828 5827 5826 5827 5828 5827 5826 5826 5825 5824 5822 5820 5818 5820 5817 5815 5813 5811 5810 5808 5806 5804 5801 5798 5795 5792 5789 5786 5782 5779 5775 5771 5768 5764 5761 5757 5754 5751 5749 5746 5744 5741 5739 5737
5823 5822 5822 5822 5825 5824 5822 5822 5821 5819 5818 5816 5814 5816 5813 5811 5809 5807 5805 5803 5800 5798 5796 5793 5790 5788 5784 5781 5777 5774 5770 5766 5762 5759 5755 5751 5748 5745 5743 5740 5738 5735 5733 5731
5818 5817 5818 5818 5817 5817 5817 5817 5816 5815 5813 5811 5810 5810 5808 5806 5804 5802 5800 5797 5795 5793 5791 5788 5785 5783 5779 5776 5772 5769 5765 5761 5757 5753 5750 5746 5743 5740 5737 5734 5731 5729 5727 5725
5812 5812 5812 5812 5812 5811 5811 5811 5811 5810 5808 5807 5806 5805 5803 5801 5800 5798 5796 5793 5791 5789 5787 5784 5781 5778 5775 5771 5768 5764 5760 5756 5752 5749 5745 5742 5738 5735 5732 5729 5726 5724 5721 5719
5807 5806 5806 5806 5807 5806 5806 5806 5806 5805 5804 5802 5801 5800 5799 5797 5796 5794 5791 5790 5787 5785 5783 5780 5777 5774 5770 5767 5764 5760 5756 5752 5748 5745 5741 5737 5734 5730 5727 5724 5721 5719 5717 5715
5801 5801 5800 5801 5800 5800 5800 5801 5800 5800 5799 5798 5796 5796 5794 5792 5791 5789 5787 5786 5784 5782 5780 5777 5773 5770 5767 5763 5760 5756 5752 5748 5744 5741 5737 5733 5730 5726 5723 5721 5718 5715 5713 5710
5796 5795 5795 5795 5795 5794 5798 5796 5795 5794 5794 5793 5791 5791 5789 5788 5787 5785 5784 5782 5781 5778 5776 5773 5770 5766 5763 5760 5756 5753 5749 5745 5741 5738 5734 5731 5727 5723 5720 5717 5714 5712 5709 5707
5791 5790 5789 5789 5788 5789 5791 5790 5789 5789 5789 5788 5787 5786 5785 5784 5783 5782 5780 5779 5777 5775 5772 5770 5766 5763 5760 5757 5753 5749 5746 5742 5739 5735 5732 5728 5724 5721 5717 5714 5711 5709 5706 5703
5785 5784 5784 5783 5783 5783 5787 5786 5785 5785 5785 5785 5783 5782 5782 5781 5780 5779 5777 5776 5774 5772 5769 5767 5764 5760 5757 5754 5750 5747 5744 5740 5737 5734 5730 5726 5722 5719 5715 5712 5709 5707 5704 5701
5779 5779 5779 5778 5778 5779 5781 5781 5781 5781 5782 5781 5779 5779 5779 5778 5778 5776 5774 5773 5771 5769 5767 5764 5762 5759 5755 5752 5748 5745 5742 5739 5735 5732 5728 5725 5721 5717 5714 5711 5708 5705 5702 5699
5773 5773 5773 5773 5774 5777 5776 5776 5777 5777 5776 5776 5776 5776 5776 5775 5774 5773 5772 5770 5769 5767 5765 5762 5760 5757 5754 5750 5747 5744 5740 5737 5734 5731 5727 5723 5720 5716 5713 5710 5707 5704 5701 5699
5767 5768 5767 5769 5771 5771 5771 5772 5772 5772 5773 5773 5773 5773 5773 5772 5772 5771 5769 5768 5767 5765 5763 5761 5758 5756 5753 5749 5746 5743 5739 5736 5733 5730 5726 5723 5719 5716 5713 5710 5707 5704 5701 5697
5761 5762 5762 5763 5764 5765 5766 5767 5767 5768 5769 5769 5770 5770 5770 5770 5769 5768 5767 5766 5765 5764 5762 5760 5757 5755 5752 5749 5745 5742 5739 5735 5732 5729 5726 5722 5719 5716 5713 5710 5707 5704 5700 5697
5756 5756 5757 5758 5760 5761 5762 5763 5764 5764 5765 5766 5767 5768 5768 5768 5767 5767 5766 5765 5764 5763 5761 5759 5756 5754 5751 5748 5745 5741 5738 5735 5732 5729 5725 5722 5719 5716 5713 5710 5707 5704 5700 5696
5751 5751 5752 5754 5756 5757 5759 5759 5760 5761 5762 5763 5764 5765 5766 5766 5766 5765 5764 5764 5763 5762 5760 5758 5755 5753 5750 5747 5744 5741 5738 5735 5732 5729 5726 5723 5720 5717 5713 5710 5707 5703 5700 5696